logo
App data

Zack Zero

Zack Zero takes you on an action-packed platform adventure with incredible 3D graphics and the playability and entertainment of classic 2D games. Help Zack Zero save his beloved Marlene, kidnapped by the evil Zulrog in an effort to obtain the powerful substance that will allow him to travel back in time.
Store | Hub | SteamDB | Site
Developer: Crocodile Entertainment Publisher: Crocodile Entertainment
Genre: Action, Adventure, Indie
Languages: English, German, French, Italian, Spanish - Spain
Tags: Action (35), Indie (35), Adventure (33), Platformer (29), Singleplayer (7), Side Scroller (6)
Category: Single-player, Full controller support, Steam Trading Cards, Family Sharing
Release date: Apr 29, 2013
Price: $2.99
Old userscore: 64% Owners: 50,000 .. 100,000
Followers: 323
Peak concurrent players yesterday: 1
Playtime total: 00:40 (average) 00:43 (median)

Steam Spy is still in beta, so expect major bugs.

Owners data:

Access restricted.

This feature is only available to users with special access rights. Sorry.

If you want to proceed, you need to register or log in first and then back Steam Spy on Patreon. Look for Indie or Pro pledge.

Don't forget to use the same email as on Steam Spy!

If you've recently backed Steam Spy on Patreon, please note, that it might take around 15 minutes for your access rights to sync. In most cases you'll need to re-login on Steam Spy too.

Audience in 2 weeks:

Access restricted.

This feature is only available to users with special access rights. Sorry.

If you want to proceed, you need to register or log in first and then back Steam Spy on Patreon. Look for Indie or Pro pledge.

Don't forget to use the same email as on Steam Spy!

If you've recently backed Steam Spy on Patreon, please note, that it might take around 15 minutes for your access rights to sync. In most cases you'll need to re-login on Steam Spy too.

Peak daily concurrent players:

CCU data courtesy of SteamDB. Used with permission.

Hourly concurrent players:

Daily Twitch stats:

Hourly Twitch stats:

Followers over time

Access restricted.

This feature is only available to users with special access rights. Sorry.

If you want to proceed, you need to register or log in first and then back Steam Spy on Patreon. Look for Indie or Pro pledge.

Don't forget to use the same email as on Steam Spy!

If you've recently backed Steam Spy on Patreon, please note, that it might take around 15 minutes for your access rights to sync. In most cases you'll need to re-login on Steam Spy too.

Views for top 50 videos on YouTube for this game:

Games similar to this one:

# Game Release date
Price
Score rank
(Userscore / Metascore)
Owners
Players
Playtime (Median)
1 Critter Crunch Sep 11, 2012 $6.99N/A (N/A)20,000 .. 50,0000%00:00 (00:00)
2 BIT.TRIP BEAT Nov 2, 2010 $5.99N/A (N/A)200,000 .. 500,0000%00:00 (00:00)
3 Super Splatters Jun 26, 2013 N/AN/A (N/A/73%)50,000 .. 100,0000%00:00 (00:00)
4 Ms. Splosion Man Apr 3, 2013 $9.99N/A (N/A)50,000 .. 100,0000%00:00 (00:00)
5 SOL: Exodus Jan 25, 2012 $7.99N/A (N/A/57%)50,000 .. 100,0000%00:00 (00:00)
6 Titan Attacks! Feb 3, 2012 $12.99N/A (N/A)50,000 .. 100,0000%00:00 (00:00)
7 BIT.TRIP CORE Oct 2, 2012 $9.99N/A (N/A)50,000 .. 100,0000%00:00 (00:00)
8 BIT.TRIP VOID Dec 19, 2012 $9.99N/A (N/A)20,000 .. 50,0000%00:00 (00:00)
9 Tales From Space: Mutant Blobs Attack Aug 15, 2012 $9.99N/A (N/A/83%)20,000 .. 50,0000%00:00 (00:00)
10 All Zombies Must Die!: Scorepocalypse Apr 19, 2012 $4.99N/A (N/A)20,000 .. 50,0000%00:00 (00:00)
11 Unmechanical Aug 8, 2012 $9.99N/A (N/A/74%)100,000 .. 200,0000%00:00 (00:00)
12 Sugar Cube: Bittersweet Factory Nov 7, 2012 $6.99N/A (N/A)20,000 .. 50,0000%00:00 (00:00)
13 Party of Sin Dec 13, 2012 $5.99N/A (N/A)50,000 .. 100,0000%00:00 (00:00)
14 Home Jun 1, 2012 $4.99N/A (N/A/69%)200,000 .. 500,0000%00:00 (00:00)
15 Ultratron Mar 18, 2013 $12.99N/A (N/A)50,000 .. 100,0000%00:00 (00:00)
16 Cargo Commander Nov 1, 2012 $4.99N/A (N/A)50,000 .. 100,0000%00:00 (00:00)
17 Puddle Nov 9, 2012 $7.99N/A (N/A)100,000 .. 200,0000%00:00 (00:00)
18 Retro/Grade Mar 20, 2013 $9.99N/A (N/A)50,000 .. 100,0000%00:00 (00:00)
19 Papo & Yo Apr 18, 2013 $14.99N/A (N/A/70%)200,000 .. 500,0000%00:00 (00:00)
20 Dream Jul 31, 2015 $8.99N/A (N/A/59%)50,000 .. 100,0000%00:00 (00:00)
21 Bad Hotel Oct 16, 2013 $4.99N/A (N/A)50,000 .. 100,0000%00:00 (00:00)
22 Godus Jul 1, 1989 N/AN/A (N/A)200,000 .. 500,0000%00:00 (00:00)
23 Element4l May 24, 2013 $8.99N/A (N/A/77%)50,000 .. 100,0000%00:00 (00:00)
24 Intake Nov 5, 2013 $9.99N/A (N/A)20,000 .. 50,0000%00:00 (00:00)
25 Super Puzzle Platformer Deluxe May 24, 2013 $7.99N/A (N/A)20,000 .. 50,0000%00:00 (00:00)
26 Poöf Nov 8, 2013 $6.99N/A (N/A)20,000 .. 50,0000%00:00 (00:00)
27 The Novelist Dec 10, 2013 $4.99N/A (N/A/66%)100,000 .. 200,0000%00:00 (00:00)
28 Omegalodon Mar 9, 2012 $9.99N/A (N/A)20,000 .. 50,0000%00:00 (00:00)
29 Solar Flux Oct 24, 2013 $9.99N/A (N/A)100,000 .. 200,0000%00:00 (00:00)
30 FOTONICA Nov 6, 2014 $14.99N/A (N/A/71%)50,000 .. 100,0000%00:00 (00:00)
31 Escape Goat 2 Mar 24, 2014 $4.99N/A (N/A/76%)50,000 .. 100,0000%00:00 (00:00)
32 Survivor Squad Nov 8, 2013 $2.99N/A (N/A)50,000 .. 100,0000%00:00 (00:00)
33 Montague's Mount Nov 19, 2013 $4.99N/A (N/A/39%)20,000 .. 50,0000%00:00 (00:00)
34 Ballpoint Universe - Infinite Dec 17, 2013 $3.99N/A (N/A)50,000 .. 100,0000%00:00 (00:00)
35 STARWHAL Sep 29, 2014 $11.99N/A (N/A)50,000 .. 100,0000%00:00 (00:00)
36 Final Rush Jan 17, 2014 $4.99N/A (N/A)50,000 .. 100,0000%00:00 (00:00)
37 Full Bore May 6, 2014 $14.99N/A (N/A/72%)20,000 .. 50,0000%00:00 (00:00)
38 A-Men Jan 25, 2014 $9.99N/A (N/A)0 .. 20,0000%00:00 (00:00)
39 Imagine Me Mar 14, 2014 N/AN/A (N/A)20,000 .. 50,0000%00:00 (00:00)
40 Procyon Feb 26, 2014 $3.99N/A (N/A)20,000 .. 50,0000%00:00 (00:00)
41 Montas Mar 24, 2014 $9.99N/A (N/A)20,000 .. 50,0000%00:00 (00:00)
42 Jones On Fire Mar 14, 2013 $2.99N/A (N/A)50,000 .. 100,0000%00:00 (00:00)
43 10 Second Ninja Mar 5, 2014 $1.99N/A (N/A/72%)50,000 .. 100,0000%00:00 (00:00)
44 Labyrinthine Dreams May 26, 2015 $1.99N/A (N/A)100,000 .. 200,0000%00:00 (00:00)
45 Imagine Earth May 25, 2021 $24.99N/A (N/A/78%)50,000 .. 100,0000%00:00 (00:00)
46 T.E.C. 3001 Apr 10, 2014 N/AN/A (N/A)20,000 .. 50,0000%00:00 (00:00)
47 Munin Jun 10, 2014 $4.99N/A (N/A/68%)200,000 .. 500,0000%00:00 (00:00)
48 ReignMaker Apr 16, 2014 $14.99N/A (N/A)50,000 .. 100,0000%00:00 (00:00)
49 Autocraft Sep 20, 2017 $9.99N/A (N/A)0 .. 20,0000%00:00 (00:00)
50 Volt Apr 14, 2014 $0.99N/A (N/A)100,000 .. 200,0000%00:00 (00:00)
51 Three Dead Zed Jul 7, 2014 $5.99N/A (N/A)100,000 .. 200,0000%00:00 (00:00)
52 Uriel's Chasm Sep 12, 2014 $4.99N/A (N/A)200,000 .. 500,0000%00:00 (00:00)
53 Cosmochoria Apr 27, 2015 $9.99N/A (N/A)20,000 .. 50,0000%00:00 (00:00)
54 Road Not Taken Aug 5, 2014 $14.99N/A (N/A/75%)50,000 .. 100,0000%00:00 (00:00)
55 The Promised Land Jul 11, 2012 $6.99N/A (N/A)20,000 .. 50,0000%00:00 (00:00)
56 Dreaming Sarah Mar 12, 2015 $1.79N/A (N/A)200,000 .. 500,0000%00:00 (00:00)
57 Captain Forever Remix Jun 3, 2016 $9.99N/A (N/A)20,000 .. 50,0000%00:00 (00:00)
58 Frederic: Resurrection of Music May 16, 2014 $2.99N/A (N/A)100,000 .. 200,0000%00:00 (00:00)
59 Frederic: Evil Strikes Back May 23, 2014 $7.99N/A (N/A)200,000 .. 500,0000%00:00 (00:00)
60 Boson X Sep 15, 2014 $4.99N/A (N/A)200,000 .. 500,0000%00:00 (00:00)
61 Concursion Jun 6, 2014 $4.99N/A (N/A/66%)20,000 .. 50,0000%00:00 (00:00)
62 Oblitus Feb 27, 2015 $14.99N/A (N/A/69%)20,000 .. 50,0000%00:00 (00:00)
63 Iron Fisticle Sep 16, 2014 $8.99N/A (N/A)100,000 .. 200,0000%00:00 (00:00)
64 Fancy Skulls Jun 16, 2014 FreeN/A (N/A)50,000 .. 100,0000%00:00 (00:00)
65 Curses 'N Chaos Aug 18, 2015 $9.99N/A (N/A)50,000 .. 100,0000%00:00 (00:00)
66 Back to Bed Aug 6, 2014 $5.99N/A (N/A)1,000,000 .. 2,000,0000%00:00 (00:00)
67 NEON STRUCT May 20, 2015 $17.99N/A (N/A/62%)50,000 .. 100,0000%00:00 (00:00)
68 OTTTD Aug 6, 2014 $1.19N/A (N/A)20,000 .. 50,0000%00:00 (00:00)
69 The Masterplan Jun 4, 2015 $19.99N/A (N/A/68%)50,000 .. 100,0000%00:00 (00:00)
70 A City Sleeps Oct 16, 2014 $9.99N/A (N/A)20,000 .. 50,0000%00:00 (00:00)
71 Velocibox Sep 8, 2014 $5.99N/A (N/A)50,000 .. 100,0000%00:00 (00:00)
72 Supreme: Pizza Empire Jan 9, 2015 $9.99N/A (N/A)0 .. 20,000100%00:11 (00:11)
73 Squishy the Suicidal Pig Oct 23, 2014 $5.99N/A (N/A)200,000 .. 500,0000%00:00 (00:00)
74 Great Permutator Sep 15, 2014 $6.99N/A (N/A)20,000 .. 50,0000%00:00 (00:00)
75 Chariot Nov 12, 2014 $14.99N/A (N/A/76%)100,000 .. 200,0000%00:00 (00:00)
76 Ninja Pizza Girl Sep 30, 2015 $6.99N/A (N/A/82%)50,000 .. 100,0000%00:00 (00:00)
77 iO Dec 5, 2014 $4.99N/A (N/A)100,000 .. 200,0000%00:00 (00:00)
78 Horizon Shift May 29, 2015 $1.24N/A (N/A)100,000 .. 200,0000%00:00 (00:00)
79 Instant Dungeon! Nov 25, 2014 $1.99N/A (N/A)20,000 .. 50,0000%00:00 (00:00)
80 Traverser Jul 9, 2015 $14.99N/A (N/A/61%)20,000 .. 50,0000%00:00 (00:00)
81 The Deer God Feb 27, 2015 $14.99N/A (N/A/59%)20,000 .. 50,0000%00:00 (00:00)
82 Pix the Cat Jan 29, 2015 $0.74N/A (N/A/77%)100,000 .. 200,0000%00:00 (00:00)
83 Tulpa Jan 29, 2015 $2.99N/A (N/A)50,000 .. 100,0000%00:00 (00:00)
84 Phoenix Force Nov 13, 2014 $0.49N/A (N/A)100,000 .. 200,0000%00:00 (00:00)
85 Marvin's Mittens Dec 17, 2014 $5.99N/A (N/A)0 .. 20,0000%00:00 (00:00)
86 Chronicles of a Dark Lord: Episode 1 Tides of Fate Complete Dec 19, 2014 N/AN/A (N/A)50,000 .. 100,0000%00:00 (00:00)
87 Bermuda Mar 17, 2015 $2.99N/A (N/A)20,000 .. 50,0000%00:00 (00:00)
88 Subsiege Sep 7, 2018 $19.99N/A (N/A)50,000 .. 100,0000%00:00 (00:00)
89 Ukrainian Ninja Dec 23, 2014 FreeN/A (N/A)100,000 .. 200,0000%00:00 (00:00)
90 TIMEframe Jul 7, 2015 $5.99N/A (N/A)50,000 .. 100,0000%00:00 (00:00)
91 On A Roll 3D Feb 12, 2015 $3.99N/A (N/A)50,000 .. 100,0000%00:00 (00:00)
92 Glorkian Warrior: The Trials Of Glork Mar 24, 2015 $1.19N/A (N/A)20,000 .. 50,0000%00:00 (00:00)
93 stratO Jun 1, 2015 $4.99N/A (N/A)0 .. 20,0000%00:00 (00:00)
94 It came from space and ate our brains Mar 19, 2015 $9.99N/A (N/A)200,000 .. 500,0000%00:00 (00:00)
95 Three Fourths Home: Extended Edition Mar 20, 2015 $0.99N/A (N/A/77%)50,000 .. 100,0000%00:00 (00:00)
96 The Cursed Forest Feb 26, 2019 $5.73N/A (N/A)20,000 .. 50,0000%00:00 (00:00)
97 Rats - Time is running out! Aug 19, 2015 N/AN/A (N/A)20,000 .. 50,0000%00:00 (00:00)
98 Beyond Sol Jun 30, 2015 N/AN/A (N/A/83%)0 .. 20,0000%00:00 (00:00)
99 Porcunipine May 21, 2015 $9.99N/A (N/A)50,000 .. 100,0000%00:00 (00:00)
100 Star Horizon May 15, 2020 $9.99N/A (N/A)20,000 .. 50,0000%00:00 (00:00)
101 Bunker - The Underground Game May 21, 2015 $3.99N/A (N/A/70%)20,000 .. 50,0000%00:00 (00:00)
102 Miner Warfare Apr 6, 2012 $2.99N/A (N/A)20,000 .. 50,0000%00:00 (00:00)
103 Centauri Sector Jun 24, 2015 $4.99N/A (N/A)0 .. 20,0000%00:00 (00:00)
104 Beyond Eyes Aug 11, 2015 N/AN/A (N/A/60%)100,000 .. 200,0000%00:00 (00:00)
105 Gryphon Knight Epic Aug 20, 2015 $9.99N/A (N/A/55%)20,000 .. 50,0000%00:00 (00:00)
106 Canabalt Apr 30, 2015 $2.99N/A (N/A)20,000 .. 50,0000%00:00 (00:00)
107 Hare In The Hat Apr 1, 2015 $1.99N/A (N/A)50,000 .. 100,0000%00:00 (00:00)
108 Kiai Resonance Apr 21, 2015 $4.99N/A (N/A)20,000 .. 50,0000%00:00 (00:00)
109 Spellsworn Mar 13, 2018 FreeN/A (N/A)100,000 .. 200,0000%00:00 (00:00)
110 Luna Sky Oct 2, 2015 $12.99N/A (N/A)50,000 .. 100,0000%00:00 (00:00)
111 Interstellar Rift Sep 24, 2020 $19.99N/A (N/A)50,000 .. 100,0000%00:00 (00:00)
112 Polyball Dec 1, 2017 $3.99N/A (N/A)200,000 .. 500,0000%00:00 (00:00)
113 Season of 12 Colors Mar 14, 2016 $2.99N/A (N/A)50,000 .. 100,0000%00:00 (00:00)
114 Pizza Express Jun 25, 2015 $6.99N/A (N/A)20,000 .. 50,0000%00:00 (00:00)
115 Football, Tactics & Glory Jun 1, 2018 $24.99N/A (N/A)200,000 .. 500,0000%00:00 (00:00)
116 The Adventures of Mr. Bobley Jun 30, 2015 $1.99N/A (N/A)50,000 .. 100,0000%00:00 (00:00)
117 Monument Jun 5, 2015 $1.99N/A (N/A)200,000 .. 500,0000%00:00 (00:00)
118 Western Press Apr 21, 2016 $4.99N/A (N/A)50,000 .. 100,0000%00:00 (00:00)
119 Sky Rogue Aug 24, 2017 $19.99N/A (N/A)100,000 .. 200,0000%00:00 (00:00)
120 Action Alien Jun 26, 2015 $0.99N/A (N/A)200,000 .. 500,0000%00:00 (00:00)
121 8Bit Fiesta - Party Game Sep 30, 2016 FreeN/A (N/A)50,000 .. 100,0000%00:00 (00:00)
122 RETSNOM Jul 23, 2015 $4.99N/A (N/A)0 .. 20,0000%00:00 (00:00)
123 Dead In Bermuda Aug 27, 2015 $14.99N/A (N/A)20,000 .. 50,0000%00:00 (00:00)
124 Aviary Attorney Dec 21, 2015 $14.99N/A (N/A/77%)20,000 .. 50,0000%00:00 (00:00)
125 none Nov 4, 2015 N/AN/A (N/A)20,000 .. 50,0000%00:00 (00:00)
126 Stray Cat Crossing Aug 28, 2015 $2.99N/A (N/A)20,000 .. 50,0000%00:00 (00:00)
127 A.I. Invasion Sep 30, 2015 $9.99N/A (N/A)0 .. 20,0000%00:00 (00:00)
128 Earth Overclocked Dec 4, 2015 $4.99N/A (N/A)20,000 .. 50,0000%00:00 (00:00)
129 Redemption: Eternal Quest Aug 28, 2015 $0.99N/A (N/A)100,000 .. 200,0000%00:00 (00:00)
130 Void Invaders Aug 14, 2015 $2.99N/A (N/A)50,000 .. 100,0000%00:00 (00:00)
131 Blaster Shooter GunGuy! Aug 10, 2015 $1.99N/A (N/A)100,000 .. 200,0000%00:00 (00:00)
132 Wild Island Quest Sep 4, 2015 $2.99N/A (N/A)50,000 .. 100,0000%00:00 (00:00)
133 Shmadow Nov 3, 2015 $1.99N/A (N/A)20,000 .. 50,0000%00:00 (00:00)
134 Dragon's Wake Dec 10, 2015 $3.99N/A (N/A)20,000 .. 50,0000%00:00 (00:00)
135 Kitchen Simulator 2015 Sep 4, 2015 $0.49N/A (N/A)20,000 .. 50,0000%00:00 (00:00)
136 ChargeShot Sep 18, 2015 $9.99N/A (N/A)20,000 .. 50,0000%00:00 (00:00)
137 Press X to Not Die Oct 6, 2017 $0.74N/A (N/A)100,000 .. 200,0000%00:00 (00:00)
138 Jet Set Knights Jan 1, 2016 $9.99N/A (N/A)20,000 .. 50,0000%00:00 (00:00)
139 Sunken Dec 3, 2015 FreeN/A (N/A)0 .. 20,0000%00:00 (00:00)
140 Dream Factory Nov 2, 2015 $9.99N/A (N/A)20,000 .. 50,0000%00:00 (00:00)
141 Fist Slash: Of Ultimate Fury Dec 10, 2015 $0.99N/A (N/A)50,000 .. 100,0000%00:00 (00:00)
142 The Purring Quest Nov 12, 2015 $0.99N/A (N/A)100,000 .. 200,0000%00:00 (00:00)
143 Perraw - FPS Clone War Alpha Jan 29, 2016 $0.99N/A (N/A)20,000 .. 50,0000%00:00 (00:00)
144 Cosmic Leap Mar 17, 2016 $0.99N/A (N/A)50,000 .. 100,0000%00:00 (00:00)
145 Godus Wars Feb 3, 2016 N/AN/A (N/A)50,000 .. 100,0000%00:00 (00:00)
146 Bell Ringer Mar 6, 2016 FreeN/A (N/A)200,000 .. 500,0000%00:00 (00:00)
147 MetaHuman Inc. Dec 18, 2015 $6.99N/A (N/A)0 .. 20,0000%00:00 (00:00)
148 PERFECT ANGLE: The puzzle game based on optical illusions Dec 22, 2015 $9.99N/A (N/A)100,000 .. 200,0000%00:00 (00:00)
149 IMSCARED Jan 31, 2016 $3.99N/A (N/A)100,000 .. 200,0000%00:00 (00:00)
150 Tiny Guardians Mar 24, 2016 $9.99N/A (N/A)0 .. 20,0000%00:00 (00:00)
151 Doodle Kingdom Jun 9, 2016 $8.99N/A (N/A)50,000 .. 100,0000%00:00 (00:00)
152 Rencounter Nov 4, 2016 $5.99N/A (N/A)100,000 .. 200,0000%00:00 (00:00)
153 Flobe Jan 23, 2016 $4.99N/A (N/A)50,000 .. 100,0000%00:00 (00:00)
154 10 Second Ninja X Jul 19, 2016 $9.99N/A (N/A)200,000 .. 500,0000%00:00 (00:00)
155 Mindless Running Feb 22, 2016 $0.99N/A (N/A)20,000 .. 50,0000%00:00 (00:00)
156 Mimpi Dreams Mar 22, 2016 FreeN/A (N/A)50,000 .. 100,0000%00:00 (00:00)
157 Bunker Punks May 28, 2018 $14.99N/A (N/A)20,000 .. 50,0000%00:00 (00:00)
158 Amigdala Mar 28, 2016 FreeN/A (N/A)20,000 .. 50,0000%00:00 (00:00)
159 Hero Quest: Tower Conflict Apr 13, 2016 $1.99N/A (N/A)500,000 .. 1,000,0000%00:00 (00:00)
160 CrazyCars3D Mar 28, 2016 $2.99N/A (N/A)50,000 .. 100,0000%00:00 (00:00)
161 Mainlining Jan 26, 2017 $12.99N/A (N/A/73%)100,000 .. 200,0000%00:00 (00:00)
162 StarsOne Apr 8, 2016 $9.99N/A (N/A)0 .. 20,0000%00:00 (00:00)
163 OPUS: The Day We Found Earth Apr 21, 2016 $14.99N/A (N/A)200,000 .. 500,0000%00:00 (00:00)
164 Wrath of Anna Apr 2, 2018 $14.99N/A (N/A)100,000 .. 200,0000%00:00 (00:00)
165 Dashy Square Apr 26, 2016 $2.99N/A (N/A)0 .. 20,0000%00:00 (00:00)
166 NORTH Apr 27, 2016 $1.99N/A (N/A)200,000 .. 500,0000%00:00 (00:00)
167 New Retro Arcade: Neon Nov 19, 2019 $19.99N/A (N/A)20,000 .. 50,0000%00:00 (00:00)
168 The Nest Jun 14, 2016 FreeN/A (N/A)0 .. 20,0000%00:00 (00:00)
169 Scanner Sombre Apr 26, 2017 $5.99N/A (N/A/67%)200,000 .. 500,0000%00:00 (00:00)
170 Reflection of Mine Feb 24, 2017 $7.99N/A (N/A)20,000 .. 50,0000%00:00 (00:00)
171 Star Drifter Jun 1, 2016 $1.99N/A (N/A)200,000 .. 500,0000%00:00 (00:00)
172 Karma Miwa Aug 12, 2016 FreeN/A (N/A)50,000 .. 100,0000%00:00 (00:00)
173 Super Duper Party Pooper Jun 6, 2016 $0.99N/A (N/A/40%)100,000 .. 200,0000%00:00 (00:00)
174 DashBored Jun 13, 2016 $4.99N/A (N/A)50,000 .. 100,0000%00:00 (00:00)
175 Bohemian Killing Jul 21, 2016 $12.99N/A (N/A/55%)20,000 .. 50,0000%00:00 (00:00)
176 Pixel Cup Soccer 17 Nov 1, 2021 N/AN/A (N/A)0 .. 20,0000%00:00 (00:00)
177 Dinosaur Forest May 17, 2017 $0.49N/A (N/A)100,000 .. 200,0000%00:00 (00:00)
178 It Comes Around - A Kinetic Novel Sep 29, 2016 $2.99N/A (N/A)0 .. 20,0000%00:00 (00:00)
179 Starship Annihilator Sep 2, 2016 $0.49N/A (N/A)200,000 .. 500,0000%00:00 (00:00)
180 Deisim Sep 1, 2022 $14.99N/A (N/A)20,000 .. 50,0000%00:00 (00:00)
181 The Gleam: VR Escape the Room Oct 14, 2016 $3.99N/A (N/A)50,000 .. 100,0000%00:00 (00:00)
182 mr.President Prologue Episode Sep 20, 2016 $0.99N/A (N/A)50,000 .. 100,0000%00:00 (00:00)
183 BoomTown! Deluxe Oct 14, 2016 $0.99N/A (N/A)50,000 .. 100,0000%00:00 (00:00)
184 Snake Pass Mar 28, 2017 $19.99N/A (N/A)500,000 .. 1,000,0000%00:00 (00:00)
185 Wayout Nov 4, 2016 $1.99N/A (N/A)100,000 .. 200,0000%00:00 (00:00)
186 Witch It Oct 22, 2020 $19.99N/A (N/A)500,000 .. 1,000,0000.59%19:55 (06:38)
187 Introvert Quest Mar 15, 2017 $0.59N/A (N/A)100,000 .. 200,0000%00:00 (00:00)
188 Distant Space Dec 20, 2016 $0.99N/A (N/A)100,000 .. 200,0000%00:00 (00:00)
189 Child Phobia: Nightcoming Fears Dec 20, 2016 $1.09N/A (N/A)20,000 .. 50,0000%00:00 (00:00)
190 Mistwood Heroes Dec 30, 2016 $4.99N/A (N/A)50,000 .. 100,0000%00:00 (00:00)
191 Starship Theory Jul 4, 2017 FreeN/A (N/A)50,000 .. 100,0000%00:00 (00:00)
192 Three Kingdoms The Last Warlord Feb 4, 2021 $3.99N/A (N/A)100,000 .. 200,0000%00:00 (00:00)
193 GORN Jul 18, 2019 $19.99N/A (N/A/85%)200,000 .. 500,0000%00:00 (00:00)
194 Open Sorcery Feb 22, 2017 $3.99N/A (N/A)0 .. 20,0000%00:00 (00:00)
195 Star of Providence Jun 7, 2017 $14.99N/A (N/A)200,000 .. 500,0000%00:00 (00:00)
196 Guns of Icarus Alliance Mar 31, 2017 $4.99N/A (N/A)100,000 .. 200,0000%00:00 (00:00)
197 The Archotek Project Apr 28, 2017 $0.99N/A (N/A)200,000 .. 500,0000.26%00:04 (00:01)

Tags over time:

Access restricted.

This feature is only available to users with special access rights. Sorry.

If you want to proceed, you need to register or log in first and then back Steam Spy on Patreon. Look for Indie or Pro pledge.

Don't forget to use the same email as on Steam Spy!

If you've recently backed Steam Spy on Patreon, please note, that it might take around 15 minutes for your access rights to sync. In most cases you'll need to re-login on Steam Spy too.

Owners of this game also own:

Access restricted.

This feature is only available to users with special access rights. Sorry.

If you want to proceed, you need to register or log in first and then back Steam Spy on Patreon. Look for Indie or Pro pledge.

Don't forget to use the same email as on Steam Spy!

If you've recently backed Steam Spy on Patreon, please note, that it might take around 15 minutes for your access rights to sync. In most cases you'll need to re-login on Steam Spy too.

Playtime distribution:

Access restricted.

This feature is only available to users with special access rights. Sorry.

If you want to proceed, you need to register or log in first and then back Steam Spy on Patreon. Look for Indie or Pro pledge.

Don't forget to use the same email as on Steam Spy!

If you've recently backed Steam Spy on Patreon, please note, that it might take around 15 minutes for your access rights to sync. In most cases you'll need to re-login on Steam Spy too.

Playtime (2 weeks):

Access restricted.

This feature is only available to users with special access rights. Sorry.

If you want to proceed, you need to register or log in first and then back Steam Spy on Patreon. Look for Indie or Pro pledge.

Don't forget to use the same email as on Steam Spy!

If you've recently backed Steam Spy on Patreon, please note, that it might take around 15 minutes for your access rights to sync. In most cases you'll need to re-login on Steam Spy too.

User reviews:

Login required.

Please register or log in to see this information.